Weather History for Provo, UT

Change the Weather History Date:

Tuesday, April 22, 2014

  Actual Average Record
Temperature  
Mean Temperature 58 °F -  
Max Temperature 73 °F 59 °F 82 °F (2012)
Min Temperature 42 °F 37 °F 33 °F (1984)
Degree Days  
Heating Degree Days 8    
Growing Degree Days 8 (Base 50)    
Moisture  
Dew Point 35 °F    
Average Humidity 45    
Maximum Humidity 76    
Minimum Humidity 20    
Precipitation  
Precipitation 0.00 in - - ()
Sea Level Pressure  
Sea Level Pressure 29.83 in    
Wind  
Wind Speed 13 mph (SSE)    
Max Wind Speed 29 mph    
Max Gust Speed 40 mph    
Visibility 11 miles    
Events      
Averages and records for this station are not official NWS values.
T = Trace of Precipitation, MM = Missing Value Source: NWS Daily Summary

Daily Weather History Graph

Daily Weather History Graph

Search for Another Location

Airport:

Trip Planner

Search our weather history database for the weather conditions in past years. The results will help you decide how hot, cold, wet, or windy it might be!

Date:

Astronomy

Apr. 22, 2014 Rise Set
Actual Time 6:38 AM MDT 8:12 PM MDT
Civil Twilight 6:09 AM MDT 8:41 PM MDT
Nautical Twilight 5:35 AM MDT 9:16 PM MDT
Astronomical Twilight 4:58 AM MDT 9:53 PM MDT
Moon 2:30 AM MDT (4/22) 1:17 PM MDT (4/22)
Length of Visible Light 14h 31m
Length of Day
13h 34m
Last Quarter, 45% of the Moon is Illuminated
Apr 22
Last Quarter
Apr 29
New
May 6
First Quarter
May 14
Full
May 21
Last Quarter

Hourly Weather History & Observations

Time (MDT) Temp. Windchill Dew Point Humidity Pressure Visibility Wind Dir Wind Speed Gust Speed Precip Events Conditions
12:15 AM 64.4 °F - 35.6 °F 34% 29.95 in 10.0 mi SE 10.4 mph - N/A   Clear
12:35 AM 62.6 °F - 37.4 °F 39% 29.94 in 10.0 mi SSE 15.0 mph - N/A   Scattered Clouds
12:55 AM 62.6 °F - 35.6 °F 37% 29.94 in 10.0 mi SE 12.7 mph - N/A   Scattered Clouds
1:15 AM 62.6 °F - 35.6 °F 37% 29.94 in 10.0 mi SSE 10.4 mph - N/A   Partly Cloudy
1:35 AM 62.6 °F - 33.8 °F 34% 29.93 in 10.0 mi SSE 11.5 mph - N/A   Clear
1:55 AM 60.8 °F - 35.6 °F 39% 29.93 in 10.0 mi SE 12.7 mph - N/A   Clear
2:15 AM 60.8 °F - 33.8 °F 36% 29.92 in 10.0 mi SE 12.7 mph - N/A   Clear
2:35 AM 60.8 °F - 35.6 °F 39% 29.92 in 10.0 mi ESE 11.5 mph - N/A   Clear
2:55 AM 57.2 °F - 33.8 °F 41% 29.91 in 10.0 mi ESE 9.2 mph - N/A   Clear
3:15 AM 57.2 °F - 35.6 °F 44% 29.90 in 10.0 mi ESE 8.1 mph - N/A   Clear
3:35 AM 57.2 °F - 35.6 °F 44% 29.90 in 10.0 mi SSE 3.5 mph - N/A   Partly Cloudy
4:15 AM 59.0 °F - 35.6 °F 42% 29.89 in 10.0 mi Calm Calm - N/A   Overcast
4:35 AM 57.2 °F - 33.8 °F 41% 29.89 in 10.0 mi SE 5.8 mph - N/A   Overcast
4:55 AM 57.2 °F - 35.6 °F 44% 29.88 in 10.0 mi ESE 9.2 mph - N/A   Mostly Cloudy
5:15 AM 60.8 °F - 35.6 °F 39% 29.87 in 10.0 mi SE 13.8 mph - N/A   Scattered Clouds
5:35 AM 60.8 °F - 35.6 °F 39% 29.87 in 10.0 mi SE 15.0 mph - N/A   Partly Cloudy
5:55 AM 59.0 °F - 35.6 °F 42% 29.86 in 10.0 mi ESE 13.8 mph - N/A   Mostly Cloudy
6:15 AM 59.0 °F - 35.6 °F 42% 29.86 in 10.0 mi SE 10.4 mph - N/A   Overcast
6:35 AM 60.8 °F - 37.4 °F 42% 29.85 in 10.0 mi SE 13.8 mph - N/A   Overcast
6:52 AM 59.0 °F - 35.6 °F 42% 29.84 in 15.0 mi SE 11.5 mph - N/A   Overcast
6:55 AM 59.0 °F - 35.6 °F 42% 29.84 in 10.0 mi SE 11.5 mph - N/A   Scattered Clouds
7:55 AM 59.0 °F - 35.6 °F 42% 29.83 in 15.0 mi SE 16.1 mph - N/A   Overcast
8:55 AM 60.8 °F - 39.2 °F 45% 29.82 in 15.0 mi SE 10.4 mph - N/A   Overcast
9:55 AM 62.6 °F - 39.2 °F 42% 29.80 in 15.0 mi SE 8.1 mph - N/A   Overcast
10:55 AM 68.0 °F - 37.4 °F 33% 29.78 in 15.0 mi SE 10.4 mph - N/A   Overcast
11:52 AM 71.6 °F - 32.0 °F 23% 29.74 in 15.0 mi South 27.6 mph 33.4 mph N/A   Overcast
12:47 PM 69.8 °F - 33.8 °F 27% 29.72 in 15.0 mi South 21.9 mph 29.9 mph N/A   Overcast
1:49 PM 69.8 °F - 35.6 °F 28% 29.67 in 15.0 mi South 13.8 mph - N/A   Overcast
2:50 PM 73.4 °F - 30.2 °F 20% 29.63 in 15.0 mi South 16.1 mph - N/A   Overcast
3:50 PM 71.6 °F - 35.6 °F 27% 29.59 in 15.0 mi South 16.1 mph - N/A   Overcast
4:53 PM 73.4 °F - 35.6 °F 25% 29.56 in 15.0 mi South 18.4 mph 26.5 mph N/A   Overcast
5:49 PM 71.6 °F - 35.6 °F 27% 29.55 in 10.0 mi South 17.3 mph 28.8 mph N/A   Mostly Cloudy
7:48 PM 53.6 °F - 33.8 °F 47% 29.67 in 2.5 mi WNW 17.3 mph 28.8 mph N/A   Mostly Cloudy
8:20 PM 51.8 °F - 32.0 °F 47% 29.72 in 5.0 mi WNW 23.0 mph 40.3 mph N/A   Mostly Cloudy
8:50 PM 48.2 °F - 33.8 °F 58% 29.78 in 10.0 mi NW 28.8 mph 40.3 mph N/A   Mostly Cloudy
9:15 PM 48.2 °F - 33.8 °F 58% 29.82 in 10.0 mi NW 26.5 mph 40.3 mph N/A   Clear
9:35 PM 46.4 °F 37.4 °F 35.6 °F 66% 29.83 in 10.0 mi NW 28.8 mph 35.7 mph N/A   Scattered Clouds
9:55 PM 44.6 °F 35.5 °F 35.6 °F 71% 29.84 in 10.0 mi NW 25.3 mph 35.7 mph N/A   Mostly Cloudy
10:15 PM 44.6 °F 35.3 °F 35.6 °F 71% 29.85 in 10.0 mi NW 26.5 mph 36.8 mph N/A   Overcast
10:35 PM 42.8 °F 33.3 °F 35.6 °F 76% 29.86 in 10.0 mi NNW 24.2 mph 32.2 mph N/A   Overcast
10:55 PM 42.8 °F 34.5 °F 35.6 °F 76% 29.88 in 10.0 mi NNW 18.4 mph - N/A   Overcast
11:15 PM 42.8 °F 36.6 °F 33.8 °F 70% 29.87 in 10.0 mi North 11.5 mph - N/A   Overcast
11:35 PM 42.8 °F 39.3 °F 33.8 °F 70% 29.88 in 10.0 mi WNW 5.8 mph - N/A   Scattered Clouds
11:55 PM 42.8 °F 35.8 °F 35.6 °F 76% 29.87 in 10.0 mi WNW 13.8 mph - N/A   Clear